TIME,DELAY(SENSOR),PRES,OXYGEN,RAWTEMP,T(OPTODE),TCPHASE,FLUOR,BETA(BETA700),BETA(BETA412),BETA(BETA440),CDOM,C(CSC),ED(ED411.90),ED(ED443.80),ED(ED489.40),ED(ED554.70),LU(LU412.20),LU(LU443.80),LU(LU489.40),LU(LU555.00),COMP,TILTX,TILTY,CHECK
1356821545,5801,855.5200195312500000,159.1958007812500000,429.5499877929687500,9.7000408172607420,39.5159606933593750,52,101,97,78,80,12527,2146964406,2147515657,2147288384,2147503734,2147091136,2146932608,2147704274,2147119104,1602,-1,9,8442
1356825141,5804,970.1900024414062000,195.3224945068359400,499.1854858398437500,7.5547609329223630,38.1768493652343750,51,100,98,78,79,12529,2146962605,2147516224,2147294299,2147513609,2147090258,2146922496,2147719323,2147120292,3049,-1,9,10232
1356828741,5807,977.2700195312500000,208.0962982177734400,509.8337097167969000,7.2240858078002930,37.5809211730957000,52,99,97,79,82,12530,2146962953,2147518061,2147298907,2147516004,2147091081,2146927533,2147724050,2147121261,60,-1,9,22544
1356832341,5807,982.5900268554688000,208.5386962890625000,510.4234008789062500,7.2057509422302250,37.5655899047851560,52,98,97,80,81,12531,2146962093,2147518281,2147296548,2147515712,2147091538,2146921901,2147720612,2147121554,318,-1,8,23905
1356835941,5807,984.9799804687500000,208.1643066406250000,512.8397216796875000,7.1305971145629880,37.6297683715820300,51,100,97,78,81,12529,2146963282,2147518244,2147295917,2147515574,2147091922,2146924169,2147720475,2147122422,673,-1,8,11833
1356839541,5807,980.7500000000000000,213.5569000244140600,516.4577026367188000,7.0179882049560550,37.3782005310058600,51,99,96,79,81,12527,2146962468,2147516352,2147297280,2147519186,2147090093,2146924452,2147721325,2147121526,2984,-1,9,54860
1356843141,5806,987.3599853515625000,215.1363067626953000,517.6431884765625000,6.9810690879821780,37.3083305358886700,51,98,97,81,81,12527,2146965321,2147516845,2147297856,2147518153,2147092379,2146922057,2147726683,2147119232,3508,-1,9,12675
1356846741,5807,992.6699829101562000,213.0758972167968800,514.8259887695312000,7.0687851905822750,37.3771781921386700,51,97,98,79,79,12527,2146961353,2147519149,2147297993,2147518400,2147092516,2146927177,2147720064,2147119899,3119,-1,9,13604
1356850341,5805,999.5599975585938000,213.1338043212890600,514.8126831054688000,7.0691981315612790,37.3743400573730500,51,99,97,79,81,12524,2146963739,2147516626,2147297609,2147520685,2147091428,2146923840,2147717714,2147120758,3203,-1,9,35539
1356853941,5804,992.6900024414062000,212.8471069335937500,515.7885131835938000,7.0388231277465820,37.4078483581543000,51,98,97,81,80,12522,2146961536,2147519424,2147297481,2147516571,2147091876,2146919844,2147720694,2147118628,3470,-1,9,37666
1356857541,5807,988.4600219726562000,214.7070007324218800,517.9616088867188000,6.9711527824401855,37.3385009765625000,51,98,97,80,81,12517,2146964086,2147516297,2147302208,2147517485,2147091309,2146922029,2147721700,2147118692,462,-1,8,62596
1356861141,5809,984.0499877929688000,215.8524932861328000,519.6011962890625000,6.9200739860534670,37.3018302917480500,52,100,103,78,81,12519,2146965412,2147517037,2147297728,2147519433,2147090368,2146923181,2147719972,2147121792,58,-1,8,51955
1356864741,5807,985.7999877929688000,215.1268005371093800,520.5449218750000000,6.8906641006469730,37.3602218627929700,52,101,97,79,81,12520,2146964708,2147517211,2147294628,2147519808,2147091693,2146920786,2147724160,2147120320,740,-1,8,31760
1356868341,5807,987.7899780273438000,215.6421051025390600,520.4011840820312000,6.8951420783996580,37.3281707763671900,52,97,97,78,82,12508,2146965065,2147517138,2147298057,2147518921,2147089691,2146925979,2147720713,2147119058,436,-1,9,60550
1356871941,5804,987.4799804687500000,217.3569030761718800,521.0123901367188000,6.8760948181152340,37.2413597106933600,52,100,98,79,80,12510,2146961334,2147514834,2147295515,2147517558,2147092589,2146920064,2147722578,2147121088,3244,-1,9,2478
1356875541,5809,991.4299926757812000,215.8220062255859400,519.9259033203125000,6.9099550247192380,37.3101005554199200,51,98,96,79,82,12513,2146964480,2147518857,2147296429,2147516790,2147088548,2146924233,2147722486,2147121481,453,-1,8,27031
1356879141,5804,990.8400268554688000,215.4842987060547000,520.6682128906250000,6.8868241310119630,37.3419799804687500,53,99,98,78,81,12504,2146965037,2147515757,2147297819,2147518747,2147089142,2146927716,2147724379,2147120539,3467,-1,9,53038
1356882741,5807,993.0200195312500000,216.2342071533203000,520.6594848632812000,6.8870940208435060,37.2991600036621100,52,100,97,79,81,12505,2146962806,2147516480,2147293302,2147520310,2147090240,2146924105,2147721152,2147120091,147,-1,8,12182
1356886341,5804,998.2800292968750000,215.1408996582031200,518.5916748046875000,6.9515237808227540,37.3254814147949200,51,101,99,79,81,12504,2146966025,2147517376,2147295451,2147519067,2147091437,2146926080,2147721892,2147120256,3534,-1,9,12758
1356889941,5806,994.0399780273438000,214.8439941406250000,518.9141845703125000,6.9414768218994140,37.3480415344238300,52,99,99,79,81,12493,2146965440,2147518409,2147294793,2147517696,2147091163,2146923730,2147724864,2147118034,3021,-1,9,60215
1356893541,5809,1002.6300048828125000,214.1613006591797000,517.4053955078125000,6.9884757995605470,37.3603286743164060,52,100,98,79,81,12500,2146966134,2147513718,2147295414,2147516790,2147089481,2146926244,2147723245,2147122313,407,-1,8,60332
1356897141,5809,998.5100097656250000,212.0429992675781200,517.3803710937500000,6.9892549514770510,37.4824714660644500,52,100,97,77,80,12504,2146965494,2147516873,2147296173,2147516242,2147090624,2146925156,2147719497,2147116434,332,-1,8,23183
1356900741,5806,1000.7800292968750000,214.5220947265625000,517.1187744140625000,6.9974021911621090,37.3345603942871100,51,101,97,79,81,12502,2146964790,2147517504,2147296704,2147516251,2147090505,2146924132,2147722422,2147122304,252,-1,9,8014
1356904341,5806,994.6900024414062000,215.4925994873047000,518.5866699218750000,6.9516801834106445,37.3051795959472660,52,99,97,79,81,12495,2146963812,2147517412,2147297088,2147518208,2147090797,2146923090,2147721828,2147123008,541,-1,8,53738
1356907941,5808,997.9600219726562000,214.7003936767578000,518.6232910156250000,6.9505410194396970,37.3504905700683600,52,104,97,79,82,12494,2146965997,2147516379,2147296740,2147515428,2147090258,2146925211,2147726491,2147118418,540,-1,9,30900
1356911541,5804,996.9600219726562000,215.1062011718750000,519.0261230468750000,6.9379920959472660,37.3345985412597660,53,106,97,80,81,12493,2146961956,2147514870,2147296813,2147517275,2147090166,2146923885,2147720128,2147119597,3181,-1,9,9831
1356915141,5806,998.0499877929688000,215.1806945800781200,518.8715209960938000,6.9428100585937500,37.3280792236328100,52,98,96,79,81,12494,2146965385,2147517504,2147294829,2147519725,2147094802,2146921152,2147722002,2147119021,3270,-1,9,23723
1356918741,5807,993.7399902343750000,216.6688995361328000,520.6151733398438000,6.8884749412536620,37.2733116149902340,51,98,96,79,81,12496,2146963702,2147514596,2147296091,2147518436,2147090834,2146926134,2147719844,2147118921,183,-1,8,21857
1356922341,5806,993.4799804687500000,216.7554931640625000,521.8079223632812000,6.8512949943542480,37.2896614074707000,52,107,98,80,81,12499,2146962980,2147515611,2147297545,2147517440,2147091986,2146921033,2147719296,2147115437,3065,-1,9,42804
1356925941,5804,997.4299926757812000,217.0142974853515600,521.2023925781250000,6.8701720237731930,37.2648582458496100,52,97,98,78,81,12494,2146961956,2147518857,2147299776,2147513499,2147090715,2146923337,2147722121,2147122304,3328,-1,9,51287
1356929541,5804,995.6900024414062000,217.3056030273437500,521.7222290039062000,6.8539671897888180,37.2574996948242200,51,99,98,77,81,12471,2146963520,2147517046,2147299062,2147515446,2147091008,2146926308,2147721664,2147120658,3216,-1,9,47331
1356933141,5806,996.7100219726562000,215.8769989013672000,520.5933227539062000,6.8891549110412600,37.3180198669433600,51,100,100,79,81,12489,2146964635,2147515300,2147297024,2147516269,2147090331,2146925010,2147721088,2147121865,150,-1,8,2216
1356936741,5806,996.4199829101562000,215.3159027099609400,521.6702880859375000,6.8555860519409180,37.3700485229492200,51,103,98,79,81,12493,2146961974,2147516763,2147296978,2147517376,2147090779,2146923748,2147719424,2147122532,3463,-1,9,25020
1356940341,5809,1002.6900024414062000,216.0177001953125000,519.8903808593750000,6.9110598564147950,37.2981910705566400,51,101,98,80,81,12490,2146961188,2147518610,2147295433,2147517888,2147090395,2146925915,2147721225,2147122294,213,-1,8,49042
1356943941,5805,1000.4199829101562000,215.1065979003906200,519.2089843750000000,6.9322938919067380,37.3378410339355500,52,100,98,80,81,12492,2146963145,2147517348,2147295314,2147516800,2147090651,2146925248,2147721481,2147118765,3255,-1,9,28330
1356947541,5806,1006.4199829101562000,215.7290954589843800,518.3842163085938000,6.9579911231994630,37.2873802185058600,52,105,99,78,81,12489,2146960576,2147516150,2147300114,2147520320,2147092068,2146926555,2147722176,2147121298,1047,-1,9,36398
1356951141,5806,1000.8300170898438000,213.8786010742187500,519.4331054687500000,6.9253110885620120,37.4124717712402340,52,101,98,79,81,12485,2146963785,2147517147,2147296201,2147514441,2147090669,2146923657,2147727067,2147121298,3315,-1,9,51985
1356954741,5807,996.9500122070312000,215.9824981689453000,520.7357788085938000,6.8847131729125980,37.3148498535156250,51,141,99,79,81,12482,2146963840,2147518646,2147296585,2147520000,2147089737,2146920475,2147723995,2147119213,486,-1,8,4645
1356958341,5807,996.7100219726562000,215.4091033935547000,521.8635864257812000,6.8495597839355470,37.3681106567382800,52,101,98,79,81,12487,2146960310,2147515273,2147300068,2147518363,2147094162,2146921481,2147726372,2147121536,3349,-1,8,57851
1356961941,5807,996.6300048828125000,216.2109069824218800,521.9968872070312000,6.8454031944274900,37.3239212036132800,52,104,98,79,80,12487,2146959158,2147516150,2147297389,2147518546,2147090468,2146927405,2147719616,2147118043,29,-1,9,25
1356963955,5805,995.6599731445312000,216.8583984375000000,522.9835205078125000,6.8146419525146480,37.3046417236328100,52,103,97,78,81,12485,2146961545,2147515629,2147296886,2147518573,2147092864,2146924745,2147723830,2147121033,3526,-1,9,21454
